Location: Cheching
(60.0667°N, 164.2167°W)
Time: 12:25:51
(UTC+00:00)

CUTE 1.7 + AOD 2 - Visible Passes

Search period start: 16 January 2021 00:00
Search period end: 26 January 2021 00:00
Orbit: 592 x 612 km, 97.6° (Epoch: 16 January)

Date Brightness Start Highest point End Pass type
(mag) Time Alt. Az. Time Alt. Az. Time Alt. Az.
16 Jan ? 03:58:05 10° SW 04:00:58 18° W 04:03:53 10° NW visible
16 Jan ? 15:30:45 10° NNE 15:33:32 35° NE 15:33:32 35° NE visible
16 Jan ? 17:06:45 10° N 17:10:20 33° NW 17:10:20 33° NW visible
17 Jan ? 04:10:33 10° WSW 04:12:55 14° W 04:15:18 10° NW visible
17 Jan ? 14:08:31 10° ENE 14:08:45 10° ENE 14:08:45 10° ENE visible
17 Jan ? 15:42:29 10° NNE 15:45:32 42° NE 15:45:32 42° NE visible
17 Jan ? 17:18:38 10° N 17:22:15 28° WNW 17:22:21 28° WNW visible
18 Jan ? 04:23:19 10° WSW 04:24:54 12° W 04:26:28 10° WNW visible
18 Jan ? 14:19:38 10° NE 14:20:46 13° ENE 14:20:46 13° ENE visible
18 Jan ? 15:54:16 10° NNE 15:57:34 52° NE 15:57:34 52° NE visible
18 Jan ? 17:30:32 10° N 17:33:56 24° NW 17:34:22 24° WNW visible
19 Jan ? 14:31:03 10° NE 14:32:48 16° ENE 14:32:48 16° ENE visible
19 Jan ? 16:06:03 10° NNE 16:09:36 62° NNE 16:09:36 62° NNE visible
19 Jan ? 17:42:29 10° N 17:45:37 21° NW 17:46:24 20° WNW visible
20 Jan ? 14:42:34 10° NE 14:44:49 19° ENE 14:44:49 19° ENE visible
20 Jan ? 16:17:52 10° NNE 16:21:38 66° NNW 16:21:38 66° NNW visible
20 Jan ? 17:54:27 10° N 17:57:16 18° NW 17:58:26 16° WNW visible
21 Jan ? 14:54:10 10° NE 14:56:52 24° ENE 14:56:52 24° ENE visible
21 Jan ? 16:29:41 10° NNE 16:33:40 60° NW 16:33:40 60° NW visible
21 Jan ? 18:06:27 10° N 18:08:55 15° NW 18:10:28 13° WNW visible
22 Jan ? 03:32:04 10° SSW 03:35:38 26° W 03:39:13 10° NW visible
22 Jan ? 15:05:50 10° NNE 15:08:54 29° ENE 15:08:54 29° ENE visible
22 Jan ? 16:41:31 10° N 16:45:36 49° WNW 16:45:42 49° WNW visible
22 Jan ? 18:18:32 10° NNW 18:20:33 13° NW 18:22:30 10° WNW visible
23 Jan ? 03:44:16 10° SW 03:47:32 21° W 03:50:50 10° NW visible
23 Jan ? 15:17:31 10° NNE 15:20:57 36° ENE 15:20:57 36° ENE visible
23 Jan ? 16:53:22 10° N 16:57:20 41° WNW 16:57:45 39° WNW visible
23 Jan ? 18:30:45 10° NNW 18:32:10 11° NW 18:33:34 10° WNW visible
24 Jan ? 03:56:34 10° SW 03:59:28 18° W 04:02:22 10° NW visible
24 Jan ? 15:29:14 10° NNE 15:33:00 45° E 15:33:00 45° E visible
24 Jan ? 17:05:14 10° N 17:09:03 34° WNW 17:09:48 31° W visible
25 Jan ? 04:09:03 10° WSW 04:11:25 15° W 04:13:47 10° NW visible
25 Jan ? 14:07:04 10° ENE 14:08:15 11° ENE 14:08:15 11° ENE visible
25 Jan ? 15:40:59 10° NNE 15:45:03 58° E 15:45:03 58° E visible
25 Jan ? 17:17:08 10° N 17:20:45 28° WNW 17:21:51 25° W visible
